Location: *
(49.9853°N, 3.5569°E)
Time: 10:21:54
(UTC+00:00)

USA 234 - Pass Details

Date: 22 September 2019
Orbit: 1103 x 1105 km, 123.0° (Epoch: 17 October)

Event Time Altitude Azimuth Distance (km) Brightness Sun altitude
Exits shadow 20:49:57 31° 58° (ENE) 1,835 4.2 -28.3°
Maximum altitude 20:52:46 49° 4° (N) 1,399 3.9 -28.7°
Drops below altitude 10° 20:58:59 10° 292° (WNW) 2,967 6.3 -29.4°
Sets 21:01:33 0° 287° (WNW) 3,925 7.1 -29.7°
